Theta_e
343 343 346 346 345 346 347 350 352 353 354 352 346 342 343 347 350 346 342 340 338 339 341 343 346 347 351 355 354 353 352 351 350 350 349 349 348 347 347 346 344 343 343 343 343 344 346 347 348 347 345 343 342 344 347 348 348 346 346 345 345 346 347
344 345 348 349 348 347 347 348 349 349 352 352 348 344 342 342 344 341 336 336 338 339 338 337 339 340 342 349 353 353 352 352 351 350 349 348 348 347 345 344 343 343 344 345 345 345 346 348 348 346 345 344 343 345 346 346 347 347 346 345 345 346 347
346 347 350 350 350 349 349 348 348 349 350 351 351 350 348 345 344 344 341 339 338 339 340 336 334 336 338 344 350 353 354 353 353 352 351 350 348 348 347 346 345 345 346 346 346 346 347 348 348 346 345 345 345 345 346 346 347 347 347 346 346 346 346
347 349 350 351 352 352 351 350 350 351 351 352 352 351 349 347 344 345 346 342 338 338 339 336 334 336 342 347 349 351 353 353 353 353 352 350 350 349 349 349 348 348 348 347 347 346 347 348 348 346 345 343 342 344 346 347 347 347 347 346 346 345 345
347 348 349 350 352 352 353 352 351 350 349 349 350 348 347 345 345 347 349 346 342 340 338 338 337 338 343 348 349 350 351 352 352 352 351 351 350 350 349 348 348 347 347 347 346 346 346 346 346 346 345 344 343 344 346 347 346 347 347 347 346 345 345
348 348 349 350 351 351 351 350 347 345 342 342 345 345 344 342 344 349 350 348 344 341 339 340 341 343 347 349 350 350 350 350 350 350 350 350 350 350 349 348 348 347 347 348 347 347 346 345 344 344 345 346 345 345 345 345 345 346 346 347 347 346 345
348 347 348 348 349 349 348 346 345 343 342 342 344 344 343 343 345 347 347 346 344 339 337 340 342 343 347 350 351 352 351 350 351 351 351 351 350 349 349 348 348 348 348 348 348 348 348 346 345 344 344 344 345 345 346 345 345 345 345 346 347 347 347
347 346 346 346 346 345 345 345 344 344 343 342 341 340 339 341 342 342 342 343 343 340 337 339 341 343 347 349 350 352 353 352 352 352 351 351 351 350 350 348 348 349 348 347 348 349 349 347 347 347 346 344 344 346 347 346 345 345 345 345 345 346 347
346 346 345 345 344 343 343 342 341 340 338 336 332 329 328 331 334 335 336 337 338 339 339 339 342 346 348 350 351 352 353 351 350 350 349 348 349 350 351 350 349 349 349 347 347 348 348 348 347 347 346 345 345 346 347 347 346 345 345 345 345 345 345
346 346 344 344 344 343 342 340 337 334 331 329 325 323 322 324 331 335 334 332 331 332 333 335 342 348 349 348 349 351 350 348 346 345 346 348 349 348 349 350 349 349 349 348 347 347 347 347 347 346 346 345 345 346 347 347 347 346 345 345 346 346 345
346 344 343 342 341 341 339 334 330 328 327 326 323 323 322 323 332 340 339 335 331 330 330 328 335 344 347 346 346 346 346 346 344 344 345 349 351 350 348 347 346 347 348 348 348 348 347 346 345 345 345 344 345 346 347 347 348 347 346 345 345 346 346
343 341 339 338 337 337 334 329 327 327 329 328 324 325 326 325 329 338 340 337 332 331 332 330 331 339 343 343 342 342 342 343 343 345 346 347 349 349 348 345 345 347 348 348 348 348 348 347 346 346 345 345 345 346 347 348 348 347 347 346 345 345 346
338 337 336 336 335 335 333 329 328 330 331 330 328 328 330 328 327 332 338 338 334 331 331 329 329 333 335 337 339 339 339 340 340 341 342 343 344 346 345 345 346 348 348 348 349 348 348 347 347 347 346 346 345 345 346 347 347 348 347 346 346 346 345
335 334 333 333 333 334 332 330 330 331 331 332 331 329 331 331 328 329 334 336 335 334 332 328 327 328 328 329 335 338 339 339 339 337 335 334 335 339 342 343 344 345 347 349 348 348 348 347 347 348 347 346 345 344 343 344 344 346 345 344 344 345 345
333 334 334 333 334 334 334 334 332 331 332 332 332 331 331 332 330 329 332 334 334 334 333 330 328 329 329 328 332 337 339 339 339 338 336 332 328 330 335 339 341 341 343 346 347 347 348 348 348 347 346 345 344 342 341 340 341 342 343 344 343 341 341
334 335 336 335 334 335 335 335 333 332 334 335 333 333 333 331 329 329 331 333 334 333 332 329 326 326 328 329 331 335 337 337 337 335 335 333 328 325 327 332 336 338 339 341 343 344 346 348 347 345 344 342 341 341 342 342 341 342 343 344 345 343 340
335 336 336 334 333 335 336 334 333 334 336 336 335 333 332 331 331 331 331 332 332 331 331 328 324 320 321 325 329 333 335 335 334 333 331 330 326 324 325 326 330 334 337 338 339 341 344 345 344 341 341 342 342 343 343 343 342 343 343 344 345 346 345
336 336 335 334 333 336 336 334 334 336 337 335 333 331 330 331 333 334 333 332 331 330 329 327 323 320 318 320 325 331 333 334 334 332 329 326 325 324 325 325 326 330 333 336 337 340 342 343 342 338 338 340 343 344 344 343 342 342 342 343 343 345 347
336 334 334 334 333 335 336 333 334 335 333 331 329 329 330 333 334 334 334 332 330 329 328 327 323 320 319 321 325 331 333 334 334 332 329 327 326 325 325 326 327 327 329 332 335 337 339 341 341 339 338 339 340 342 343 343 343 343 343 344 343 344 346
335 333 333 333 333 334 334 332 331 331 328 327 328 330 332 333 333 332 331 329 329 328 327 327 324 321 321 322 326 330 332 332 332 331 329 327 327 327 326 325 326 327 327 330 333 335 336 337 339 340 341 341 341 342 343 344 344 345 345 345 345 345 345
331 331 332 332 332 332 332 330 329 328 327 328 329 330 332 331 330 329 328 328 328 328 327 325 322 322 323 323 324 327 329 329 329 329 328 327 327 327 327 326 325 326 326 329 332 334 333 334 337 339 340 342 343 343 344 344 345 345 345 345 345 345 346
329 330 331 331 331 330 329 328 328 327 328 329 330 330 330 329 328 328 328 328 327 326 325 324 323 322 323 324 325 326 327 328 328 329 329 328 327 327 327 327 326 326 327 328 329 332 334 335 336 337 338 340 341 342 342 343 344 345 345 345 344 344 345
328 329 329 329 329 328 327 327 328 328 329 329 329 329 329 328 328 328 328 326 325 324 325 325 326 325 324 325 326 327 327 328 329 330 330 330 329 329 328 328 327 327 328 328 328 331 335 336 335 335 336 337 338 340 340 341 342 344 345 345 345 344 344
328 328 328 328 328 327 328 328 328 328 328 329 328 328 328 328 327 327 326 325 326 327 327 328 329 329 328 327 328 328 328 329 329 330 331 331 331 331 330 330 329 329 329 328 327 328 330 333 333 332 333 334 336 337 338 339 341 342 343 344 345 344 343
327 328 328 327 328 328 327 328 328 328 328 328 328 328 328 327 327 327 327 328 328 329 330 330 331 331 330 329 329 329 329 329 330 331 331 330 331 332 331 330 330 331 330 330 329 328 327 329 331 331 330 332 334 336 337 337 338 340 342 342 344 345 344
327 327 327 327 327 327 327 327 327 327 327 327 327 328 328 328 328 328 329 329 330 330 331 331 331 331 331 330 330 330 329 329 330 330 330 330 330 331 330 330 330 331 332 331 331 331 330 329 330 331 330 330 331 334 335 335 336 338 340 341 342 344 344
326 326 327 327 327 327 327 327 327 326 327 327 328 328 328 329 329 329 329 329 330 330 331 331 331 331 331 331 330 329 329 328 328 328 328 328 328 329 329 330 330 332 332 332 332 333 333 332 332 332 331 330 330 331 332 334 335 336 337 338 340 342 344
326 326 326 326 326 326 326 326 326 326 326 327 328 328 328 329 329 329 329 329 330 330 330 330 331 331 331 330 329 328 327 327 327 327 327 327 327 328 329 330 331 332 332 333 333 333 333 333 333 334 333 332 331 330 331 333 334 335 335 336 337 340 342
325 325 325 325 326 326 326 326 326 327 327 327 328 328 328 329 329 329 329 329 330 330 330 330 330 330 329 328 327 327 327 327 328 327 327 327 327 327 328 328 330 331 331 332 332 333 333 333 333 333 334 333 332 331 331 332 333 334 334 335 336 339 341
325 325 325 325 325 325 326 326 327 327 327 327 327 328 328 329 329 329 329 329 330 330 330 330 329 328 328 327 328 328 328 328 327 327 327 327 327 327 327 327 328 330 329 330 330 332 332 333 333 333 333 333 333 332 331 332 332 333 334 336 337 337 339
325 325 325 325 325 325 325 326 326 326 327 327 328 328 328 329 329 329 329 329 329 328 328 328 328 328 328 328 328 328 327 326 326 326 326 327 327 327 327 327 327 328 328 328 329 330 330 331 331 331 332 332 332 332 331 332 332 332 333 336 337 335 335
325 325 325 324 324 324 324 324 325 326 327 327 328 328 328 328 329 329 328 328 327 327 327 327 328 328 328 328 328 327 326 326 325 325 326 327 327 327 327 326 327 327 327 327 327 328 328 329 329 330 331 331 332 332 331 332 332 332 331 333 335 335 333
324 324 324 324 324 325 325 326 327 327 327 327 327 327 328 328 328 327 327 327 326 327 327 327 327 327 327 327 327 326 326 325 325 325 326 326 327 327 326 326 326 326 327 327 327 327 328 328 328 329 329 330 331 331 331 331 331 332 331 331 333 334 333
323 323 324 325 326 327 327 328 328 327 327 327 327 327 327 327 327 326 326 326 326 327 327 326 326 326 326 326 325 325 325 325 325 325 326 326 326 327 326 326 326 326 327 327 327 328 328 328 329 329 329 329 330 330 330 330 330 331 331 332 332 333 334
322 323 324 326 327 327 327 327 327 327 327 327 326 326 326 326 325 325 325 325 326 326 326 325 325 325 324 324 324 324 324 325 325 325 326 327 326 326 326 326 326 326 327 327 328 328 329 329 330 329 329 330 330 330 330 330 329 329 331 332 332 333 335
323 324 325 326 327 327 327 327 327 327 326 326 326 326 325 325 324 324 324 324 324 324 323 323 323 323 322 323 323 324 324 325 325 326 326 327 326 326 326 326 326 327 327 327 328 328 329 329 329 329 329 329 330 330 331 330 329 329 330 331 332 333 334
324 325 326 326 326 326 326 326 326 326 325 325 324 324 323 323 323 324 323 323 322 321 321 322 322 322 322 322 323 323 324 325 325 326 326 326 326 326 326 326 326 326 327 327 328 328 328 329 328 328 328 329 329 330 330 330 330 330 330 331 332 332 333
325 325 325 326 326 325 325 324 323 323 323 322 322 322 321 321 321 321 320 320 320 320 320 322 322 322 321 321 322 323 324 324 324 325 325 326 326 326 327 327 327 327 327 327 328 328 328 328 328 328 328 329 330 331 331 330 330 331 332 332 332 332 332
Wind_Speed
17 16 15 13 11 10 8 7 6 7 7 7 8 10 11 11 11 12 13 14 16 18 20 23 28 26 21 17 15 14 11 10 11 12 12 13 13 13 14 14 14 14 13 12 12 12 12 11 11 11 11 11 11 10 10 10 11 13 15 17 20 21 22
17 17 15 14 12 10 7 3 3 5 7 7 5 6 7 8 9 11 12 15 19 21 21 21 22 20 15 11 8 9 10 9 10 11 12 11 11 11 12 13 15 15 14 13 12 11 10 10 11 12 10 10 9 8 8 9 11 14 16 18 20 22 23
16 15 14 14 13 11 7 3 4 6 7 7 6 7 7 9 11 12 10 11 15 19 20 19 16 13 11 10 8 8 9 9 10 10 11 11 11 11 12 13 14 15 15 15 13 11 10 10 11 12 11 10 10 9 8 9 10 13 17 19 21 22 23
16 15 14 13 12 11 7 5 6 8 9 9 9 9 10 11 13 13 11 10 13 17 18 15 13 12 12 12 10 8 8 9 10 10 10 11 11 11 12 13 13 14 15 14 13 12 11 11 11 13 12 11 11 10 9 9 9 11 15 19 22 22 23
15 14 13 12 12 10 8 6 6 7 9 10 11 11 11 12 13 13 12 11 14 16 15 12 11 12 12 11 9 8 8 9 10 10 10 11 11 11 13 13 13 13 13 13 13 12 12 11 11 12 12 12 12 11 10 11 10 11 14 18 21 23 24
14 13 13 13 13 12 10 8 6 5 6 8 10 11 11 12 13 14 14 13 14 14 12 10 9 9 11 10 7 6 5 6 8 10 10 10 10 11 12 13 12 12 12 13 13 13 12 13 12 12 11 12 13 13 12 11 11 11 13 15 18 21 23
13 13 13 13 14 14 13 11 9 8 7 8 9 10 12 13 15 16 16 16 15 13 11 10 9 9 10 10 8 7 7 7 8 9 10 10 10 11 11 12 12 12 13 13 13 13 14 14 14 13 12 13 13 13 12 12 11 11 12 14 15 18 20
12 12 13 14 15 15 14 13 12 11 10 10 11 13 13 14 16 18 18 17 16 14 11 10 9 10 10 10 9 9 10 10 10 11 13 13 13 12 11 12 12 12 14 14 13 13 14 14 14 14 14 14 14 13 13 12 11 11 12 12 14 16 19
14 13 14 15 15 15 15 14 13 12 12 13 14 16 16 16 17 18 18 17 15 12 11 10 10 10 10 9 8 8 10 10 11 12 13 14 15 15 15 14 13 12 14 14 13 13 14 15 14 14 15 15 15 15 14 13 13 12 12 12 13 15 18
14 15 15 15 15 14 14 13 12 12 13 14 15 17 17 17 17 19 19 18 15 12 9 9 10 12 11 12 12 12 10 9 11 13 13 13 14 14 15 16 15 13 13 13 13 13 13 14 15 15 15 15 15 16 15 15 14 13 12 12 12 14 16
15 15 14 14 13 12 12 12 12 13 13 14 15 17 19 18 17 18 19 18 16 12 9 8 9 11 13 14 16 17 15 10 8 11 14 14 13 13 13 14 15 14 12 12 13 13 14 14 15 15 16 16 15 16 16 16 15 14 13 12 13 14 15
13 13 12 10 10 10 10 12 12 12 13 13 13 15 20 21 18 16 17 18 15 11 8 8 10 11 13 14 15 17 18 16 11 10 12 14 15 15 14 14 15 15 13 12 12 12 13 14 15 15 16 16 15 16 16 16 16 16 15 14 13 14 14
12 11 10 8 8 8 8 9 10 11 13 14 14 14 18 23 21 16 14 15 14 11 10 10 10 11 12 13 14 15 16 18 16 13 13 14 15 16 15 15 16 15 15 14 13 12 12 13 14 14 15 15 16 16 16 16 16 16 16 15 15 15 14
10 9 8 6 6 5 4 6 10 12 13 15 16 15 17 22 23 17 13 13 12 13 14 15 13 12 12 13 14 14 15 17 17 16 15 15 15 15 15 15 15 15 15 15 14 13 12 12 12 13 14 15 15 15 16 17 17 17 16 15 15 16 15
10 8 7 5 4 3 4 6 9 12 11 13 16 16 19 22 23 19 14 13 13 14 17 19 18 16 16 15 13 13 14 16 18 18 17 16 15 14 13 13 14 14 14 14 14 14 13 12 11 11 13 14 14 15 16 17 17 18 17 17 16 17 17
10 7 5 3 2 2 4 6 7 8 8 10 13 16 19 21 20 18 16 14 16 18 20 22 21 20 20 19 16 14 14 15 17 19 19 18 18 17 14 13 13 13 13 13 13 13 14 13 11 12 13 14 14 15 16 18 18 18 18 18 18 18 19
10 5 2 3 3 3 2 6 7 6 5 7 12 15 17 17 16 16 16 16 19 21 23 26 26 23 22 21 19 17 16 16 17 19 20 20 19 18 17 14 13 13 13 13 12 12 11 11 11 13 15 16 16 16 16 17 17 18 18 19 19 19 20
8 3 1 4 4 3 3 6 5 3 4 8 12 14 14 14 14 15 15 16 19 21 24 27 28 26 25 22 19 18 17 17 18 19 20 20 19 18 18 16 14 14 13 13 13 12 11 10 11 14 14 16 18 18 17 17 16 17 18 19 19 20 21
3 2 3 3 2 1 1 4 3 4 8 11 12 12 12 12 12 13 14 16 18 21 24 27 29 28 26 22 19 19 18 18 20 21 21 20 18 17 17 17 16 15 14 13 12 12 11 10 12 14 15 16 17 17 17 17 16 16 18 19 19 19 21
2 5 3 2 6 6 4 4 6 9 11 11 10 10 10 10 10 10 13 15 18 21 24 28 30 28 24 21 20 20 21 21 22 23 22 21 19 16 16 16 17 16 15 14 13 12 12 11 11 13 14 15 15 16 16 15 15 15 17 19 20 20 21
11 9 5 6 8 6 4 7 10 10 11 10 9 9 8 8 9 11 14 17 20 24 27 29 29 25 22 21 21 21 22 24 25 25 24 22 19 17 16 16 16 17 16 15 13 12 12 12 12 12 13 14 15 15 16 15 14 15 16 17 18 19 21
15 11 7 7 6 4 7 10 9 8 8 8 7 7 8 9 11 14 17 21 25 28 28 26 25 23 22 22 22 23 23 25 26 26 25 22 20 19 18 17 16 16 15 15 14 14 14 13 12 12 14 14 14 15 16 16 15 15 14 15 16 18 20
14 11 8 7 7 9 11 10 7 6 6 6 7 10 13 15 17 20 22 25 27 26 25 23 22 22 22 22 22 23 24 25 26 26 24 23 21 20 19 18 16 15 14 14 15 16 16 14 12 13 14 15 15 15 16 16 16 15 14 14 16 18 20
13 13 12 12 13 13 12 10 9 8 8 10 13 16 19 21 22 24 25 25 24 23 23 23 21 20 21 22 23 24 25 26 26 25 24 23 22 20 19 18 17 16 15 14 15 17 17 15 14 14 15 16 17 16 17 17 16 15 15 14 15 18 21
13 12 12 14 15 14 12 12 13 13 14 17 19 21 22 23 24 25 24 23 23 23 24 23 21 20 21 22 23 24 25 26 25 25 25 25 23 20 20 20 19 17 16 15 14 15 16 17 17 16 16 17 17 17 17 17 16 15 15 15 15 17 20
16 16 15 16 16 15 15 16 16 17 19 21 21 22 22 22 23 23 23 23 23 23 22 21 20 20 20 22 23 24 24 25 25 26 26 26 24 23 22 22 20 18 17 15 14 14 15 17 18 18 18 18 18 18 18 18 17 15 15 15 16 18 19
17 16 15 15 16 16 17 18 19 19 20 20 20 20 21 21 22 22 23 23 22 20 20 20 20 20 21 22 23 24 24 25 26 27 27 26 26 26 25 24 22 20 18 16 15 14 14 16 17 19 19 19 19 19 18 18 18 17 16 16 17 18 20
15 15 14 15 16 17 18 18 19 19 20 20 19 19 20 21 22 23 23 22 19 18 19 20 20 21 22 23 24 25 26 26 26 26 26 26 26 26 25 24 23 22 20 18 16 15 15 16 17 18 19 20 20 19 18 17 18 18 18 17 17 18 20
15 15 15 15 15 16 17 17 18 18 18 19 20 21 22 23 23 22 21 19 18 19 19 20 21 22 24 25 26 27 26 25 25 24 24 24 25 25 25 25 23 22 20 19 17 17 16 17 18 19 19 21 21 19 18 17 17 18 18 18 18 17 18
13 13 14 15 16 16 16 17 18 18 18 20 22 23 23 21 20 20 19 18 18 19 20 21 23 24 25 26 25 24 23 23 23 23 23 23 23 24 25 25 24 23 22 20 18 17 17 17 18 19 20 21 22 21 19 17 17 18 17 16 16 16 16
10 11 13 15 16 17 18 18 19 19 20 21 22 21 20 18 17 18 18 18 19 20 21 23 24 25 25 24 22 21 21 22 22 22 22 22 22 23 24 24 25 25 24 23 20 18 18 18 19 19 20 20 22 22 21 19 19 19 17 15 14 15 15
10 12 14 16 18 20 20 19 19 19 19 19 18 18 17 16 17 17 17 18 19 21 22 23 23 23 23 21 20 20 21 22 22 22 22 22 22 23 23 24 24 25 25 24 22 20 19 19 20 20 20 21 21 22 22 22 21 21 19 16 15 15 15
14 16 18 19 19 19 18 17 16 16 16 16 16 15 16 16 16 16 16 18 20 21 21 21 21 22 21 20 21 21 22 23 23 23 23 23 23 23 24 24 24 24 24 24 23 22 21 20 20 20 20 21 22 22 23 24 23 22 21 19 16 15 15
17 18 19 17 16 16 15 14 14 14 13 14 14 15 16 17 16 16 17 19 19 19 20 20 21 21 21 21 22 23 24 24 24 24 24 24 23 24 24 25 25 25 24 23 22 22 21 20 20 20 20 20 21 21 23 25 24 23 21 21 20 18 16
18 18 17 15 14 13 13 13 14 13 13 14 16 17 18 17 16 17 18 19 19 18 19 20 20 21 22 22 23 24 24 24 24 24 24 24 24 24 24 24 25 26 25 23 20 19 19 19 19 19 19 19 19 19 22 24 25 23 22 23 24 23 20
16 16 15 13 12 11 12 13 14 14 14 16 17 18 17 16 17 18 18 18 19 18 18 19 20 21 21 22 22 23 23 23 23 23 24 24 25 26 25 25 24 24 24 23 20 17 17 17 18 18 19 19 19 18 19 22 24 24 24 25 26 26 23
14 13 13 12 11 12 14 15 15 15 16 17 17 16 16 15 16 17 18 19 19 18 16 16 18 20 21 21 20 21 21 22 22 23 24 24 24 25 26 27 26 25 24 23 21 19 17 17 17 18 18 19 20 19 19 20 22 24 24 25 26 27 25
12 12 12 12 12 14 16 17 16 16 16 16 17 17 16 15 16 18 19 19 17 15 13 13 17 20 20 19 18 19 20 21 21 22 23 23 24 24 25 27 29 29 27 25 22 20 19 18 17 17 16 16 18 18 19 19 20 21 22 23 25 26 26
Wind_Direction
99 94 86 82 80 80 74 61 62 68 57 38 23 14 12 17 22 19 19 24 24 23 16 360 349 341 330 324 322 317 309 298 290 285 280 280 279 277 273 272 273 271 271 273 272 266 258 256 257 252 251 256 256 257 263 257 244 238 234 230 228 228 230
95 88 87 87 88 96 105 81 37 44 52 50 33 10 9 20 22 18 25 32 30 31 31 17 5 358 343 328 317 310 305 295 288 283 278 276 275 274 270 269 270 273 277 278 274 268 258 257 262 260 256 255 253 251 257 257 244 235 232 231 231 231 230
93 89 90 89 89 94 97 64 20 16 25 30 18 1 4 18 17 13 25 46 45 43 44 35 20 10 354 341 332 316 306 298 292 285 279 274 271 268 267 268 271 275 279 279 277 270 259 255 259 263 262 254 245 238 240 249 246 238 233 230 230 230 230
94 92 92 89 87 88 79 48 14 360 1 10 17 16 17 22 16 11 21 51 58 51 48 37 17 5 358 350 343 330 319 308 298 288 281 278 274 270 270 272 273 275 278 280 281 273 263 257 254 257 259 257 251 242 235 239 241 239 235 233 231 229 229
97 95 92 87 84 84 79 61 26 2 359 11 25 28 25 23 20 22 33 45 48 47 45 34 14 1 353 349 344 333 327 315 298 284 278 275 273 273 274 276 277 275 277 282 283 279 271 264 257 253 255 259 261 253 241 237 238 240 238 235 233 229 228
95 93 89 86 86 89 90 86 71 42 19 14 25 33 32 27 25 28 32 32 34 40 40 26 8 346 335 338 335 316 308 303 293 284 278 274 272 274 277 280 281 278 279 282 284 283 279 272 267 260 255 257 259 256 250 243 239 240 239 236 233 230 228
91 90 91 93 94 94 93 90 83 71 55 39 38 43 44 40 39 37 32 29 29 30 28 15 354 326 318 324 319 302 291 283 284 288 288 285 282 280 280 281 282 282 283 283 283 283 279 277 274 269 265 260 257 254 252 250 247 244 241 237 234 232 230
96 95 95 95 94 93 91 86 79 73 66 61 54 51 51 49 47 45 40 38 35 28 24 13 350 332 327 324 310 294 287 284 288 297 300 298 294 290 286 283 283 286 287 288 289 284 279 278 274 269 268 265 260 255 251 252 252 251 248 241 235 234 232
99 98 96 92 89 88 85 82 77 71 65 62 53 47 48 49 48 48 46 46 46 39 31 16 358 351 343 333 325 308 297 301 310 310 307 305 300 296 293 291 292 292 291 293 293 288 282 280 276 271 269 267 263 259 255 255 255 255 255 249 240 235 232
101 98 94 90 87 83 80 76 70 64 56 50 43 35 35 41 44 48 49 48 47 40 26 8 360 359 349 340 347 347 338 333 327 315 306 301 298 297 298 301 303 301 298 298 296 293 288 282 279 274 271 270 267 263 261 260 261 260 261 259 252 243 232
106 100 94 89 86 80 74 69 60 53 44 36 34 32 32 34 39 47 49 46 43 31 8 348 347 356 354 347 351 1 8 7 341 318 311 305 302 305 307 308 307 301 298 300 298 298 294 289 286 280 274 273 271 269 265 263 263 263 263 263 262 256 244
106 100 93 86 82 76 70 66 57 47 37 27 25 28 30 29 30 40 45 44 44 36 5 335 326 337 349 350 352 0 10 16 8 341 326 319 318 321 318 308 303 298 292 291 292 294 294 292 291 288 284 280 275 274 273 270 267 266 265 265 263 259 253
105 97 91 85 80 73 68 61 43 31 26 21 17 16 19 20 20 28 40 42 44 41 22 355 332 327 334 343 348 353 0 7 7 359 349 340 337 336 330 318 310 303 296 293 291 291 290 290 292 295 295 291 283 278 277 274 271 266 265 266 265 260 254
113 103 90 78 70 56 48 43 25 14 14 15 13 8 6 9 10 15 31 35 31 28 19 8 354 341 335 337 343 349 354 356 354 352 351 349 348 349 344 337 329 319 308 302 298 294 289 288 291 295 296 292 284 276 271 268 264 258 252 252 255 257 253
129 121 103 83 69 37 24 25 15 10 6 3 5 1 357 359 0 3 13 18 15 11 6 3 357 350 348 347 346 350 353 351 345 342 342 343 345 349 348 346 343 337 327 316 307 300 292 286 285 286 287 283 274 266 263 261 258 254 248 245 244 248 249
144 135 118 75 43 357 7 14 6 1 353 351 358 357 352 353 353 353 356 0 2 357 355 356 353 349 349 349 350 351 348 344 340 338 339 340 340 340 340 340 340 341 340 332 322 312 302 298 291 279 274 272 267 263 263 263 261 258 255 251 247 246 248
162 153 116 21 335 273 331 9 1 347 335 344 356 355 351 351 351 350 349 350 350 348 346 347 346 344 343 342 344 347 346 344 338 334 336 338 337 335 334 334 332 333 337 339 338 329 314 305 295 280 271 270 271 269 269 269 267 265 263 260 255 251 248
179 181 262 319 314 268 325 357 352 331 338 350 357 356 353 351 348 346 345 345 342 340 339 338 338 338 336 335 338 341 343 343 337 332 334 336 336 333 329 329 330 329 329 334 341 341 329 310 295 287 279 273 273 273 272 269 265 264 264 263 261 257 254
226 329 318 313 22 107 32 11 17 8 1 357 357 356 349 344 341 339 339 337 334 334 334 333 332 331 329 329 333 336 336 335 332 330 331 335 337 333 325 324 327 328 328 330 335 339 334 321 306 298 289 280 277 277 276 271 264 261 261 260 258 256 256
5 8 2 108 100 112 113 53 26 11 5 358 351 344 337 335 335 334 331 327 326 328 329 327 326 324 323 323 325 328 328 327 327 327 327 330 334 334 328 323 322 324 327 327 329 331 328 321 312 303 296 292 287 281 278 274 269 266 265 263 259 254 253
45 44 81 115 106 107 77 27 12 4 360 352 344 340 336 335 331 325 322 321 323 326 325 322 320 318 317 317 318 320 322 323 325 326 327 328 329 329 328 324 319 318 321 322 322 321 319 315 309 302 299 298 295 287 281 279 277 274 271 267 264 259 255
33 46 88 108 98 75 29 13 7 3 358 356 357 351 343 336 328 324 322 322 323 323 321 319 316 313 313 313 314 316 320 322 323 325 328 329 327 325 324 322 318 315 316 315 311 309 311 310 306 301 297 298 300 296 289 286 284 279 271 265 262 259 256
33 40 58 61 44 34 28 23 21 17 11 10 2 347 341 336 331 328 325 323 321 320 320 322 318 312 310 310 312 314 316 318 319 322 326 329 328 326 323 321 318 315 312 308 304 305 310 310 306 301 296 294 299 300 296 292 289 283 273 264 261 260 256
32 34 35 28 22 25 30 29 24 17 6 356 347 340 339 336 331 329 326 324 324 324 325 326 321 314 310 309 310 312 313 315 317 320 324 326 328 328 326 323 319 314 310 305 300 301 304 303 301 299 293 290 292 296 296 295 294 290 280 270 265 264 261
9 10 7 4 3 5 7 2 359 354 346 343 340 337 336 333 329 329 329 328 327 324 323 323 320 316 312 310 310 311 312 314 316 319 322 323 323 325 325 324 321 316 311 305 299 296 295 294 295 295 290 287 288 290 290 292 295 295 288 276 266 264 263
1 354 349 350 348 346 346 344 343 341 340 340 338 335 333 330 329 330 329 326 324 320 319 318 317 316 313 310 310 311 313 315 316 317 318 318 317 317 318 319 318 316 311 304 298 293 288 286 288 288 286 285 286 287 287 287 288 290 290 282 268 260 259
2 356 353 351 346 342 341 340 339 340 339 338 336 332 330 328 326 326 323 321 320 318 317 317 317 317 314 312 313 314 315 315 315 314 314 314 313 314 315 317 316 314 311 304 297 291 285 282 284 285 285 284 286 286 287 287 286 283 285 286 276 263 256
3 360 354 351 348 346 343 340 337 334 331 330 328 326 324 322 321 320 319 320 320 317 316 317 316 315 314 313 314 314 314 314 314 313 312 311 311 312 314 316 317 316 314 309 300 292 286 281 282 285 285 283 283 285 286 289 291 286 282 285 284 273 262
351 348 344 344 344 343 340 336 332 328 325 323 322 320 320 319 318 318 318 319 317 315 314 314 313 313 313 314 315 315 315 315 316 315 313 311 310 310 310 311 314 315 315 313 307 300 293 287 285 287 287 283 282 283 286 291 296 294 288 285 286 281 269
343 339 337 338 337 336 333 330 328 325 321 320 319 318 319 319 318 317 317 317 315 314 313 313 312 313 314 316 317 317 316 317 318 317 314 312 311 311 309 308 308 309 310 311 309 304 299 295 291 290 291 288 285 283 284 290 297 298 293 289 290 289 280
340 337 333 330 327 326 323 322 324 322 319 319 318 318 320 320 317 316 317 316 316 315 314 314 313 314 316 317 317 318 318 320 320 319 317 317 318 317 315 312 308 306 306 307 306 303 299 297 295 292 290 289 287 285 285 290 295 297 294 289 291 296 294
333 331 328 325 324 322 319 319 320 320 320 320 319 318 320 317 315 317 318 317 316 315 314 314 313 315 316 316 316 318 320 321 322 323 323 323 323 322 321 319 315 310 306 304 304 302 297 295 294 292 289 286 285 285 288 291 293 295 293 289 288 295 301
330 330 330 328 327 325 324 324 325 327 329 327 323 320 317 314 316 321 320 316 315 314 313 313 314 315 316 317 318 319 319 320 322 324 324 324 324 323 322 322 321 317 310 305 302 301 298 295 293 291 290 288 285 285 287 289 290 291 292 290 288 288 293
331 331 330 328 328 330 330 330 331 333 332 327 324 320 317 318 322 323 318 315 315 314 314 314 315 317 318 318 318 319 319 321 322 323 322 322 323 323 323 324 324 320 315 310 306 302 300 298 295 291 291 290 289 286 285 285 287 289 290 290 290 286 286
331 331 330 328 332 336 334 332 335 334 327 321 320 320 322 325 324 319 315 314 314 314 315 315 316 318 318 317 318 320 322 323 322 322 322 323 324 324 324 326 326 323 317 311 307 302 299 298 296 293 291 290 289 286 283 282 284 288 290 289 289 288 289
335 336 336 336 337 336 333 334 336 333 328 325 323 322 326 327 321 316 313 312 312 313 313 314 317 317 316 318 321 324 325 324 323 323 324 325 327 326 324 323 325 326 323 317 310 303 295 292 293 292 290 288 285 282 280 279 280 283 286 286 285 286 287
345 347 346 344 341 338 337 336 335 333 332 330 326 327 329 326 318 313 312 312 314 316 316 319 321 319 318 321 324 326 327 326 324 324 325 327 330 330 328 326 326 328 329 325 317 309 299 292 291 290 287 287 286 281 277 275 275 278 281 282 282 282 283
355 356 353 350 348 346 343 340 338 336 332 330 328 330 331 326 320 319 320 320 322 322 322 326 326 321 320 323 325 328 329 327 325 326 327 329 333 335 335 334 331 330 330 329 324 316 307 299 296 293 288 286 286 285 282 277 276 277 279 280 281 282 282